Time,TemperatureF,DewpointF,PressureIn,WindDirection,WindDirectionDegrees,WindSpeedMPH,WindSpeedGustMPH,Humidity,HourlyPrecipIn,Conditions,Clouds,dailyrainin,SoftwareType,DateUTC
2013-04-22 00:01:00,57.8,40.3,30.09,East,80,0.0,0.0,52,0.00,,---,0.00,VWS V14.01,2013-04-22 05:01:00,
2013-04-22 00:06:00,57.8,41.8,30.09,East,80,0.0,1.0,55,0.00,,---,0.00,VWS V14.01,2013-04-22 05:06:00,
2013-04-22 00:11:00,57.3,41.3,30.09,East,80,1.0,1.0,55,0.00,,---,0.00,VWS V14.01,2013-04-22 05:11:00,
2013-04-22 00:16:00,57.0,41.0,30.09,NE,42,0.0,2.0,55,0.00,,---,0.00,VWS V14.01,2013-04-22 05:16:00,
2013-04-22 00:21:00,57.0,41.9,30.09,ENE,64,0.0,2.0,57,0.00,,---,0.00,VWS V14.01,2013-04-22 05:21:00,
2013-04-22 00:26:00,56.7,41.2,30.09,SE,146,0.0,2.0,56,0.00,,---,0.00,VWS V14.01,2013-04-22 05:26:00,
2013-04-22 00:31:00,56.6,41.1,30.09,SE,146,0.0,2.0,56,0.00,,---,0.00,VWS V14.01,2013-04-22 05:31:00,
2013-04-22 00:36:00,56.5,41.0,30.09,SE,146,0.0,2.0,56,0.00,,---,0.00,VWS V14.01,2013-04-22 05:36:00,
2013-04-22 00:41:00,56.5,41.0,30.09,SE,146,0.0,0.0,56,0.00,,---,0.00,VWS V14.01,2013-04-22 05:41:00,
2013-04-22 00:46:00,56.2,40.7,30.09,SE,146,0.0,0.0,56,0.00,,---,0.00,VWS V14.01,2013-04-22 05:46:00,
2013-04-22 00:51:00,56.0,40.5,30.09,SE,146,0.0,0.0,56,0.00,,---,0.00,VWS V14.01,2013-04-22 05:51:00,
2013-04-22 00:56:00,56.0,40.5,30.09,SE,146,0.0,0.0,56,0.00,,---,0.00,VWS V14.01,2013-04-22 05:56:00,
2013-04-22 01:01:00,55.6,41.5,30.09,SE,146,0.0,0.0,59,0.00,,---,0.00,VWS V14.01,2013-04-22 06:01:00,
2013-04-22 01:06:00,55.6,41.5,30.09,SE,146,0.0,0.0,59,0.00,,---,0.00,VWS V14.01,2013-04-22 06:06:00,
2013-04-22 01:11:00,55.3,41.2,30.09,SE,146,0.0,0.0,59,0.00,,---,0.00,VWS V14.01,2013-04-22 06:11:00,
2013-04-22 01:16:00,55.0,41.0,30.09,SE,146,0.0,0.0,59,0.00,,---,0.00,VWS V14.01,2013-04-22 06:16:00,
2013-04-22 01:21:00,54.8,40.8,30.09,SE,146,0.0,0.0,59,0.00,,---,0.00,VWS V14.01,2013-04-22 06:21:00,
2013-04-22 01:26:00,54.5,40.5,30.09,SE,146,0.0,0.0,59,0.00,,---,0.00,VWS V14.01,2013-04-22 06:26:00,
2013-04-22 01:31:00,54.2,41.1,30.09,SE,146,0.0,0.0,61,0.00,,---,0.00,VWS V14.01,2013-04-22 06:31:00,
2013-04-22 01:36:00,54.1,41.0,30.09,SE,146,0.0,0.0,61,0.00,,---,0.00,VWS V14.01,2013-04-22 06:36:00,
2013-04-22 01:41:00,53.6,40.5,30.09,SE,146,0.0,0.0,61,0.00,,---,0.00,VWS V14.01,2013-04-22 06:41:00,
2013-04-22 01:46:00,53.3,40.2,30.09,SE,146,0.0,0.0,61,0.00,,---,0.00,VWS V14.01,2013-04-22 06:46:00,
2013-04-22 01:51:00,53.2,40.1,30.08,SE,146,0.0,0.0,61,0.00,,---,0.00,VWS V14.01,2013-04-22 06:51:00,
2013-04-22 01:55:00,53.2,40.1,30.08,SE,146,0.0,0.0,61,0.00,,---,0.00,VWS V14.01,2013-04-22 06:55:00,
2013-04-22 02:00:00,52.6,40.8,30.08,SE,146,0.0,0.0,64,0.00,,---,0.00,VWS V14.01,2013-04-22 07:00:00,
2013-04-22 02:05:00,52.5,40.7,30.08,SE,146,0.0,0.0,64,0.00,,---,0.00,VWS V14.01,2013-04-22 07:05:00,
2013-04-22 02:10:00,52.5,40.7,30.08,SE,146,0.0,0.0,64,0.00,,---,0.00,VWS V14.01,2013-04-22 07:10:00,
2013-04-22 02:15:00,52.0,40.2,30.08,SE,146,0.0,0.0,64,0.00,,---,0.00,VWS V14.01,2013-04-22 07:15:00,
2013-04-22 02:20:00,52.0,40.6,30.08,SE,146,0.0,0.0,65,0.00,,---,0.00,VWS V14.01,2013-04-22 07:20:00,
2013-04-22 02:25:00,51.7,40.3,30.07,SE,146,0.0,0.0,65,0.00,,---,0.00,VWS V14.01,2013-04-22 07:25:00,
2013-04-22 02:30:00,51.4,40.0,30.07,SE,146,0.0,0.0,65,0.00,,---,0.00,VWS V14.01,2013-04-22 07:30:00,
2013-04-22 02:35:00,51.3,40.0,30.06,SE,146,0.0,0.0,65,0.00,,---,0.00,VWS V14.01,2013-04-22 07:35:00,
2013-04-22 02:40:00,51.3,40.0,30.06,SE,146,0.0,0.0,65,0.00,,---,0.00,VWS V14.01,2013-04-22 07:40:00,
2013-04-22 02:45:00,51.3,40.0,30.06,SE,146,0.0,0.0,65,0.00,,---,0.00,VWS V14.01,2013-04-22 07:45:00,
2013-04-22 02:50:00,51.0,39.7,30.05,SE,146,0.0,0.0,65,0.00,,---,0.00,VWS V14.01,2013-04-22 07:50:00,
2013-04-22 02:55:00,51.0,39.7,30.05,SE,146,0.0,0.0,65,0.00,,---,0.00,VWS V14.01,2013-04-22 07:55:00,
2013-04-22 03:00:00,50.8,39.5,30.05,SE,146,0.0,0.0,65,0.00,,---,0.00,VWS V14.01,2013-04-22 08:00:00,
2013-04-22 03:05:00,50.8,39.5,30.05,SE,146,0.0,0.0,65,0.00,,---,0.00,VWS V14.01,2013-04-22 08:05:00,
2013-04-22 03:10:00,50.7,39.4,30.05,SE,146,0.0,0.0,65,0.00,,---,0.00,VWS V14.01,2013-04-22 08:10:00,
2013-04-22 03:15:00,50.7,39.4,30.05,SE,146,0.0,0.0,65,0.00,,---,0.00,VWS V14.01,2013-04-22 08:15:00,
2013-04-22 03:20:00,50.5,40.3,30.04,SE,146,0.0,0.0,68,0.00,,---,0.00,VWS V14.01,2013-04-22 08:20:00,
2013-04-22 03:25:00,50.5,40.3,30.04,SE,146,0.0,0.0,68,0.00,,---,0.00,VWS V14.01,2013-04-22 08:25:00,
2013-04-22 03:30:00,50.4,40.2,30.04,SE,146,0.0,0.0,68,0.00,,---,0.00,VWS V14.01,2013-04-22 08:30:00,
2013-04-22 03:35:00,50.2,40.1,30.04,SE,146,0.0,0.0,68,0.00,,---,0.00,VWS V14.01,2013-04-22 08:35:00,
2013-04-22 03:40:00,50.2,40.4,30.04,SE,146,0.0,0.0,69,0.00,,---,0.00,VWS V14.01,2013-04-22 08:40:00,
2013-04-22 03:45:00,50.2,40.4,30.04,SE,146,0.0,0.0,69,0.00,,---,0.00,VWS V14.01,2013-04-22 08:45:00,
2013-04-22 03:50:00,50.1,40.3,30.04,SE,146,0.0,0.0,69,0.00,,---,0.00,VWS V14.01,2013-04-22 08:50:00,
2013-04-22 03:55:00,49.9,40.2,30.04,SE,146,0.0,0.0,69,0.00,,---,0.00,VWS V14.01,2013-04-22 08:55:00,
2013-04-22 04:00:00,49.9,40.2,30.04,SE,146,0.0,0.0,69,0.00,,---,0.00,VWS V14.01,2013-04-22 09:00:00,
2013-04-22 04:05:00,49.8,40.0,30.04,SE,146,0.0,0.0,69,0.00,,---,0.00,VWS V14.01,2013-04-22 09:05:00,
2013-04-22 04:10:00,49.6,39.9,30.04,SE,146,0.0,0.0,69,0.00,,---,0.00,VWS V14.01,2013-04-22 09:10:00,
2013-04-22 04:15:00,49.6,39.9,30.04,SE,146,0.0,0.0,69,0.00,,---,0.00,VWS V14.01,2013-04-22 09:15:00,
2013-04-22 04:20:00,49.5,39.8,30.04,SE,146,0.0,0.0,69,0.00,,---,0.00,VWS V14.01,2013-04-22 09:20:00,
2013-04-22 04:25:00,49.5,39.8,30.04,SE,146,0.0,0.0,69,0.00,,---,0.00,VWS V14.01,2013-04-22 09:25:00,
2013-04-22 04:30:00,49.5,39.8,30.04,SE,146,0.0,0.0,69,0.00,,---,0.00,VWS V14.01,2013-04-22 09:30:00,
2013-04-22 04:35:00,49.4,39.7,30.04,SE,146,0.0,0.0,69,0.00,,---,0.00,VWS V14.01,2013-04-22 09:35:00,
2013-04-22 04:40:00,49.4,40.4,30.03,SE,146,0.0,0.0,71,0.00,,---,0.00,VWS V14.01,2013-04-22 09:40:00,
2013-04-22 04:45:00,49.2,40.2,30.03,SE,146,0.0,0.0,71,0.00,,---,0.00,VWS V14.01,2013-04-22 09:45:00,
2013-04-22 04:50:00,49.2,40.2,30.03,SE,146,0.0,0.0,71,0.00,,---,0.00,VWS V14.01,2013-04-22 09:50:00,
2013-04-22 04:55:00,49.2,40.6,30.03,SE,146,0.0,0.0,72,0.00,,---,0.00,VWS V14.01,2013-04-22 09:55:00,
2013-04-22 05:00:00,49.2,40.6,30.03,SE,146,0.0,0.0,72,0.00,,---,0.00,VWS V14.01,2013-04-22 10:00:00,
2013-04-22 05:05:00,49.1,40.5,30.03,SE,146,0.0,0.0,72,0.00,,---,0.00,VWS V14.01,2013-04-22 10:05:00,
2013-04-22 05:10:00,49.1,40.5,30.03,SE,146,0.0,0.0,72,0.00,,---,0.00,VWS V14.01,2013-04-22 10:10:00,
2013-04-22 05:15:00,48.9,40.3,30.03,SE,146,0.0,0.0,72,0.00,,---,0.00,VWS V14.01,2013-04-22 10:15:00,
2013-04-22 05:20:00,48.9,40.3,30.03,SE,146,0.0,0.0,72,0.00,,---,0.00,VWS V14.01,2013-04-22 10:20:00,
2013-04-22 05:25:00,48.9,40.3,30.03,SE,146,0.0,0.0,72,0.00,,---,0.00,VWS V14.01,2013-04-22 10:25:00,
2013-04-22 05:30:00,48.6,40.3,30.03,SE,146,0.0,0.0,73,0.00,,---,0.00,VWS V14.01,2013-04-22 10:30:00,
2013-04-22 05:35:00,48.6,40.3,30.03,SE,146,0.0,0.0,73,0.00,,---,0.00,VWS V14.01,2013-04-22 10:35:00,
2013-04-22 05:40:00,48.5,40.2,30.03,SE,146,0.0,0.0,73,0.00,,---,0.00,VWS V14.01,2013-04-22 10:40:00,
2013-04-22 05:45:00,48.5,40.2,30.03,SE,146,0.0,0.0,73,0.00,,---,0.00,VWS V14.01,2013-04-22 10:45:00,
2013-04-22 05:50:00,48.3,40.1,30.03,SE,146,0.0,0.0,73,0.00,,---,0.00,VWS V14.01,2013-04-22 10:50:00,
2013-04-22 05:55:00,48.3,40.1,30.03,SE,146,0.0,0.0,73,0.00,,---,0.00,VWS V14.01,2013-04-22 10:55:00,
2013-04-22 06:00:00,48.2,40.0,30.03,SE,146,0.0,0.0,73,0.00,,---,0.00,VWS V14.01,2013-04-22 11:00:00,
2013-04-22 06:05:00,48.2,40.0,30.03,SE,146,0.0,0.0,73,0.00,,---,0.00,VWS V14.01,2013-04-22 11:05:00,
2013-04-22 06:10:00,48.0,39.8,30.03,SE,146,0.0,0.0,73,0.00,,---,0.00,VWS V14.01,2013-04-22 11:10:00,
2013-04-22 06:15:00,48.0,40.8,30.03,SE,146,0.0,0.0,76,0.00,,---,0.00,VWS V14.01,2013-04-22 11:15:00,
2013-04-22 06:20:00,48.0,40.8,30.03,SE,146,0.0,0.0,76,0.00,,---,0.00,VWS V14.01,2013-04-22 11:20:00,
2013-04-22 06:25:00,47.7,40.5,30.03,SE,146,0.0,0.0,76,0.00,,---,0.00,VWS V14.01,2013-04-22 11:25:00,
2013-04-22 06:30:00,47.6,40.4,30.03,SE,146,0.0,0.0,76,0.00,,---,0.00,VWS V14.01,2013-04-22 11:30:00,
2013-04-22 06:35:00,47.4,40.6,30.03,SE,146,0.0,0.0,77,0.00,,---,0.00,VWS V14.01,2013-04-22 11:35:00,
2013-04-22 06:40:00,47.1,40.3,30.03,SE,146,0.0,0.0,77,0.00,,---,0.00,VWS V14.01,2013-04-22 11:40:00,
2013-04-22 06:45:00,47.1,40.3,30.03,SE,146,0.0,0.0,77,0.00,,---,0.00,VWS V14.01,2013-04-22 11:45:00,
2013-04-22 06:50:00,47.1,40.3,30.03,SE,146,0.0,0.0,77,0.00,,---,0.00,VWS V14.01,2013-04-22 11:50:00,
2013-04-22 06:55:00,47.1,40.6,30.03,SE,146,0.0,0.0,78,0.00,,---,0.00,VWS V14.01,2013-04-22 11:55:00,
2013-04-22 07:00:00,46.7,40.2,30.03,SE,146,0.0,0.0,78,0.00,,---,0.00,VWS V14.01,2013-04-22 12:00:00,
2013-04-22 07:05:00,46.7,40.2,30.03,SE,146,0.0,0.0,78,0.00,,---,0.00,VWS V14.01,2013-04-22 12:05:00,
2013-04-22 07:10:00,46.7,40.2,30.04,SE,146,0.0,0.0,78,0.00,,---,0.00,VWS V14.01,2013-04-22 12:10:00,
2013-04-22 07:15:00,46.5,40.7,30.04,SE,146,0.0,0.0,80,0.00,,---,0.00,VWS V14.01,2013-04-22 12:15:00,
2013-04-22 07:20:00,46.5,40.7,30.04,SE,146,0.0,0.0,80,0.00,,---,0.00,VWS V14.01,2013-04-22 12:20:00,
2013-04-22 07:25:00,46.5,40.7,30.04,SE,146,0.0,0.0,80,0.00,,---,0.00,VWS V14.01,2013-04-22 12:25:00,
2013-04-22 07:30:00,46.5,40.7,30.04,SE,146,0.0,0.0,80,0.00,,---,0.00,VWS V14.01,2013-04-22 12:30:00,
2013-04-22 07:35:00,46.5,40.7,30.04,SE,146,0.0,0.0,80,0.00,,---,0.00,VWS V14.01,2013-04-22 12:35:00,
2013-04-22 07:40:00,46.8,41.0,30.04,SE,146,0.0,0.0,80,0.00,,---,0.00,VWS V14.01,2013-04-22 12:40:00,
2013-04-22 07:45:00,47.0,41.2,30.04,SE,146,0.0,0.0,80,0.00,,---,0.00,VWS V14.01,2013-04-22 12:45:00,
2013-04-22 07:50:00,47.1,41.3,30.04,SE,146,0.0,0.0,80,0.00,,---,0.00,VWS V14.01,2013-04-22 12:50:00,
2013-04-22 07:55:00,47.1,41.3,30.05,SE,146,0.0,0.0,80,0.00,,---,0.00,VWS V14.01,2013-04-22 12:55:00,
2013-04-22 08:00:00,48.0,42.1,30.05,SE,146,0.0,0.0,80,0.00,,---,0.00,VWS V14.01,2013-04-22 13:00:00,
2013-04-22 08:05:00,48.0,41.8,30.05,SE,143,0.0,0.0,79,0.00,,---,0.00,VWS V14.01,2013-04-22 13:05:00,
2013-04-22 08:10:00,48.6,41.7,30.06,SE,143,0.0,0.0,77,0.00,,---,0.00,VWS V14.01,2013-04-22 13:10:00,
2013-04-22 08:15:00,49.5,42.6,30.06,SE,143,1.0,1.0,77,0.00,,---,0.00,VWS V14.01,2013-04-22 13:15:00,
2013-04-22 08:20:00,50.2,43.3,30.06,SE,143,0.0,1.0,77,0.00,,---,0.00,VWS V14.01,2013-04-22 13:20:00,
2013-04-22 08:25:00,50.8,43.9,30.06,SE,143,0.0,0.0,77,0.00,,---,0.00,VWS V14.01,2013-04-22 13:25:00,
2013-04-22 08:30:00,51.4,44.4,30.06,SE,143,0.0,0.0,77,0.00,,---,0.00,VWS V14.01,2013-04-22 13:30:00,
2013-04-22 08:35:00,51.4,44.4,30.06,SE,143,0.0,0.0,77,0.00,,---,0.00,VWS V14.01,2013-04-22 13:35:00,
2013-04-22 08:40:00,55.0,47.9,30.06,SE,143,0.0,0.0,77,0.00,,---,0.00,VWS V14.01,2013-04-22 13:40:00,
2013-04-22 08:45:00,56.7,49.6,30.06,SE,143,0.0,1.0,77,0.00,,---,0.00,VWS V14.01,2013-04-22 13:45:00,
2013-04-22 08:50:00,56.7,49.6,30.06,SE,140,0.0,1.0,77,0.00,,---,0.00,VWS V14.01,2013-04-22 13:50:00,
2013-04-22 08:55:00,58.3,51.1,30.05,SE,144,1.0,3.0,77,0.00,,---,0.00,VWS V14.01,2013-04-22 13:55:00,
2013-04-22 09:00:00,59.5,52.3,30.05,NNE,22,0.0,3.0,77,0.00,,---,0.00,VWS V14.01,2013-04-22 14:00:00,
2013-04-22 09:05:00,59.8,52.6,30.05,SE,140,0.0,3.0,77,0.00,,---,0.00,VWS V14.01,2013-04-22 14:05:00,
2013-04-22 09:10:00,60.9,53.7,30.05,SE,140,0.0,0.0,77,0.00,,---,0.00,VWS V14.01,2013-04-22 14:10:00,
2013-04-22 09:15:00,61.6,54.3,30.05,SE,140,0.0,0.0,77,0.00,,---,0.00,VWS V14.01,2013-04-22 14:15:00,
2013-04-22 09:20:00,62.0,54.7,30.05,SE,140,0.0,0.0,77,0.00,,---,0.00,VWS V14.01,2013-04-22 14:20:00,
2013-04-22 09:25:00,62.1,54.8,30.05,SE,140,2.0,2.0,77,0.00,,---,0.00,VWS V14.01,2013-04-22 14:25:00,
2013-04-22 09:30:00,63.4,56.1,30.05,SE,140,0.0,2.0,77,0.00,,---,0.00,VWS V14.01,2013-04-22 14:30:00,
2013-04-22 09:35:00,63.2,43.2,30.05,NE,54,0.0,2.0,48,0.00,,---,0.00,VWS V14.01,2013-04-22 14:35:00,
2013-04-22 09:40:00,63.7,43.7,30.05,SW,223,0.0,3.0,48,0.00,,---,0.00,VWS V14.01,2013-04-22 14:40:00,
2013-04-22 09:45:00,64.2,44.1,30.05,SE,134,0.0,3.0,48,0.00,,---,0.00,VWS V14.01,2013-04-22 14:45:00,
2013-04-22 09:50:00,65.0,44.8,30.05,SE,134,0.0,3.0,48,0.00,,---,0.00,VWS V14.01,2013-04-22 14:50:00,
2013-04-22 09:55:00,65.3,45.1,30.05,South,171,0.0,0.0,48,0.00,,---,0.00,VWS V14.01,2013-04-22 14:55:00,
2013-04-22 10:00:00,66.8,46.5,30.05,South,171,0.0,0.0,48,0.00,,---,0.00,VWS V14.01,2013-04-22 15:00:00,
2013-04-22 10:05:00,66.8,46.5,30.05,SSW,203,0.0,0.0,48,0.00,,---,0.00,VWS V14.01,2013-04-22 15:05:00,
2013-04-22 10:10:00,68.1,47.7,30.05,SSW,205,0.0,2.0,48,0.00,,---,0.00,VWS V14.01,2013-04-22 15:10:00,
2013-04-22 10:15:00,69.1,48.6,30.05,SSW,205,0.0,2.0,48,0.00,,---,0.00,VWS V14.01,2013-04-22 15:15:00,
2013-04-22 10:20:00,69.6,43.6,30.05,SSW,205,0.0,2.0,39,0.00,,---,0.00,VWS V14.01,2013-04-22 15:20:00,
2013-04-22 10:25:00,69.8,43.8,30.05,South,178,0.0,2.0,39,0.00,,---,0.00,VWS V14.01,2013-04-22 15:25:00,
2013-04-22 10:30:00,70.3,45.5,30.05,South,178,2.0,2.0,41,0.00,,---,0.00,VWS V14.01,2013-04-22 15:30:00,
2013-04-22 10:35:00,70.3,44.2,30.05,South,178,2.0,2.0,39,0.00,,---,0.00,VWS V14.01,2013-04-22 15:35:00,
2013-04-22 10:40:00,70.3,44.2,30.05,South,184,2.0,2.0,39,0.00,,---,0.00,VWS V14.01,2013-04-22 15:40:00,
2013-04-22 10:45:00,71.1,44.9,30.05,SSW,195,0.0,3.0,39,0.00,,---,0.00,VWS V14.01,2013-04-22 15:45:00,
2013-04-22 10:50:00,71.1,44.9,30.05,SE,126,0.0,4.0,39,0.00,,---,0.00,VWS V14.01,2013-04-22 15:50:00,
2013-04-22 10:55:00,71.3,45.1,30.05,SE,140,0.0,0.0,39,0.00,,---,0.00,VWS V14.01,2013-04-22 15:55:00,
2013-04-22 11:00:00,72.7,46.3,30.05,SSW,192,0.0,3.0,39,0.00,,---,0.00,VWS V14.01,2013-04-22 16:00:00,
2013-04-22 11:05:00,73.2,46.8,30.05,SSE,159,0.0,3.0,39,0.00,,---,0.00,VWS V14.01,2013-04-22 16:05:00,
2013-04-22 11:10:00,73.2,46.8,30.05,SSE,156,0.0,3.0,39,0.00,,---,0.00,VWS V14.01,2013-04-22 16:10:00,
2013-04-22 11:15:00,72.7,46.3,30.05,SSW,203,0.0,4.0,39,0.00,,---,0.00,VWS V14.01,2013-04-22 16:15:00,
2013-04-22 11:20:00,73.2,46.8,30.05,SSW,200,2.0,6.0,39,0.00,,---,0.00,VWS V14.01,2013-04-22 16:20:00,
2013-04-22 11:25:00,72.8,46.4,30.05,SE,144,0.0,2.0,39,0.00,,---,0.00,VWS V14.01,2013-04-22 16:25:00,
2013-04-22 11:30:00,72.5,46.2,30.05,South,171,4.0,4.0,39,0.00,,---,0.00,VWS V14.01,2013-04-22 16:30:00,
2013-04-22 11:35:00,72.8,46.4,30.05,NNE,20,0.0,4.0,39,0.00,,---,0.00,VWS V14.01,2013-04-22 16:35:00,
2013-04-22 11:40:00,72.8,46.4,30.04,NNE,32,0.0,0.0,39,0.00,,---,0.00,VWS V14.01,2013-04-22 16:40:00,
2013-04-22 11:45:00,74.2,47.7,30.04,SSW,193,0.0,5.0,39,0.00,,---,0.00,VWS V14.01,2013-04-22 16:45:00,
2013-04-22 11:50:00,74.0,47.5,30.04,SSW,204,0.0,5.0,39,0.00,,---,0.00,VWS V14.01,2013-04-22 16:50:00,
2013-04-22 11:55:00,73.7,47.2,30.03,SSW,204,0.0,3.0,39,0.00,,---,0.00,VWS V14.01,2013-04-22 16:55:00,
2013-04-22 12:00:00,74.0,46.1,30.03,SSE,155,0.0,4.0,37,0.00,,---,0.00,VWS V14.01,2013-04-22 17:00:00,
2013-04-22 12:05:00,74.4,45.0,30.03,SSE,158,2.0,4.0,35,0.00,,---,0.00,VWS V14.01,2013-04-22 17:05:00,
2013-04-22 12:10:00,74.4,44.2,30.02,South,177,3.0,3.0,34,0.00,,---,0.00,VWS V14.01,2013-04-22 17:10:00,
2013-04-22 12:15:00,75.3,45.0,30.02,SSE,164,0.0,4.0,34,0.00,,---,0.00,VWS V14.01,2013-04-22 17:15:00,
2013-04-22 12:20:00,74.9,44.7,30.02,South,182,2.0,4.0,34,0.00,,---,0.00,VWS V14.01,2013-04-22 17:20:00,
2013-04-22 12:25:00,74.4,44.2,30.00,South,188,1.0,5.0,34,0.00,,---,0.00,VWS V14.01,2013-04-22 17:25:00,
2013-04-22 12:30:00,74.6,44.4,30.00,SE,137,1.0,5.0,34,0.00,,---,0.00,VWS V14.01,2013-04-22 17:30:00,
2013-04-22 12:35:00,75.3,45.0,30.00,SSE,159,2.0,5.0,34,0.00,,---,0.00,VWS V14.01,2013-04-22 17:35:00,
2013-04-22 12:40:00,75.6,45.3,30.00,ENE,57,5.0,5.0,34,0.00,,---,0.00,VWS V14.01,2013-04-22 17:40:00,
2013-04-22 12:45:00,74.7,44.5,30.00,NE,53,6.0,7.0,34,0.00,,---,0.00,VWS V14.01,2013-04-22 17:45:00,
2013-04-22 12:50:00,74.7,42.1,30.00,ESE,105,2.0,7.0,31,0.00,,---,0.00,VWS V14.01,2013-04-22 17:50:00,
2013-04-22 12:55:00,75.4,42.7,29.99,SSW,195,0.0,5.0,31,0.00,,---,0.00,VWS V14.01,2013-04-22 17:55:00,
2013-04-22 13:00:00,75.8,43.0,29.99,ENE,58,0.0,5.0,31,0.00,,---,0.00,VWS V14.01,2013-04-22 18:00:00,
2013-04-22 13:05:00,74.6,42.0,29.99,SW,217,5.0,5.0,31,0.00,,---,0.00,VWS V14.01,2013-04-22 18:05:00,
2013-04-22 13:10:00,74.6,41.2,29.98,SSE,163,1.0,2.0,30,0.00,,---,0.00,VWS V14.01,2013-04-22 18:10:00,
2013-04-22 13:15:00,75.6,42.0,29.98,NE,53,2.0,3.0,30,0.00,,---,0.00,VWS V14.01,2013-04-22 18:15:00,
2013-04-22 13:20:00,75.3,41.8,29.98,East,84,0.0,4.0,30,0.00,,---,0.00,VWS V14.01,2013-04-22 18:20:00,
2013-04-22 13:25:00,75.3,43.4,29.97,South,190,5.0,5.0,32,0.00,,---,0.00,VWS V14.01,2013-04-22 18:25:00,
2013-04-22 13:30:00,76.5,42.8,29.97,ESE,121,0.0,5.0,30,0.00,,---,0.00,VWS V14.01,2013-04-22 18:30:00,
2013-04-22 13:35:00,76.5,42.8,29.97,South,169,3.0,5.0,30,0.00,,---,0.00,VWS V14.01,2013-04-22 18:35:00,
2013-04-22 13:40:00,77.2,43.4,29.96,SSE,161,1.0,4.0,30,0.00,,---,0.00,VWS V14.01,2013-04-22 18:40:00,
2013-04-22 13:45:00,76.1,42.5,29.96,SE,130,2.0,4.0,30,0.00,,---,0.00,VWS V14.01,2013-04-22 18:45:00,
2013-04-22 13:50:00,76.3,42.6,29.96,SE,139,2.0,6.0,30,0.00,,---,0.00,VWS V14.01,2013-04-22 18:50:00,
2013-04-22 13:55:00,76.8,43.0,29.95,SSE,148,0.0,0.0,30,0.00,,---,0.00,VWS V14.01,2013-04-22 18:55:00,
2013-04-22 14:00:00,76.8,43.0,29.95,SE,133,0.0,4.0,30,0.00,,---,0.00,VWS V14.01,2013-04-22 19:00:00,
2013-04-22 14:05:00,77.2,43.4,29.95,ENE,78,0.0,4.0,30,0.00,,---,0.00,VWS V14.01,2013-04-22 19:05:00,
2013-04-22 14:10:00,77.4,43.6,29.94,ESE,114,0.0,0.0,30,0.00,,---,0.00,VWS V14.01,2013-04-22 19:10:00,
2013-04-22 14:15:00,77.6,43.7,29.94,East,97,1.0,2.0,30,0.00,,---,0.00,VWS V14.01,2013-04-22 19:15:00,
2013-04-22 14:20:00,77.6,43.7,29.94,ESE,115,0.0,6.0,30,0.00,,---,0.00,VWS V14.01,2013-04-22 19:20:00,
2013-04-22 14:25:00,77.6,43.7,29.94,SE,135,2.0,2.0,30,0.00,,---,0.00,VWS V14.01,2013-04-22 19:25:00,
2013-04-22 14:30:00,77.7,43.8,29.94,SE,128,3.0,4.0,30,0.00,,---,0.00,VWS V14.01,2013-04-22 19:30:00,
2013-04-22 14:35:00,77.7,43.8,29.94,SSW,202,0.0,4.0,30,0.00,,---,0.00,VWS V14.01,2013-04-22 19:35:00,
2013-04-22 14:40:00,77.7,43.8,29.94,South,181,5.0,5.0,30,0.00,,---,0.00,VWS V14.01,2013-04-22 19:40:00,
2013-04-22 14:45:00,78.3,44.3,29.94,ESE,121,0.0,5.0,30,0.00,,---,0.00,VWS V14.01,2013-04-22 19:45:00,
2013-04-22 14:50:00,78.1,44.2,29.94,SW,224,3.0,5.0,30,0.00,,---,0.00,VWS V14.01,2013-04-22 19:50:00,
2013-04-22 14:55:00,77.6,43.7,29.93,WNW,300,1.0,4.0,30,0.00,,---,0.00,VWS V14.01,2013-04-22 19:55:00,
2013-04-22 15:00:00,77.6,43.7,29.93,SSE,159,4.0,4.0,30,0.00,,---,0.00,VWS V14.01,2013-04-22 20:00:00,
2013-04-22 15:05:00,77.4,43.6,29.93,SSE,157,7.0,7.0,30,0.00,,---,0.00,VWS V14.01,2013-04-22 20:05:00,
2013-04-22 15:10:00,76.8,43.0,29.91,SE,141,0.0,3.0,30,0.00,,---,0.00,VWS V14.01,2013-04-22 20:10:00,
2013-04-22 15:15:00,76.8,43.0,29.91,SSE,166,3.0,4.0,30,0.00,,---,0.00,VWS V14.01,2013-04-22 20:15:00,
2013-04-22 15:20:00,76.8,43.0,29.91,South,186,5.0,9.0,30,0.00,,---,0.00,VWS V14.01,2013-04-22 20:20:00,
2013-04-22 15:25:00,77.0,43.2,29.90,ESE,116,5.0,5.0,30,0.00,,---,0.00,VWS V14.01,2013-04-22 20:25:00,
2013-04-22 15:30:00,77.0,43.2,29.90,ESE,116,4.0,9.0,30,0.00,,---,0.00,VWS V14.01,2013-04-22 20:30:00,
2013-04-22 15:35:00,77.7,43.8,29.90,SSE,160,0.0,9.0,30,0.00,,---,0.00,VWS V14.01,2013-04-22 20:35:00,
2013-04-22 15:40:00,77.7,43.8,29.89,SSE,160,0.0,0.0,30,0.00,,---,0.00,VWS V14.01,2013-04-22 20:40:00,
2013-04-22 15:45:00,77.7,43.8,29.89,NE,37,5.0,5.0,30,0.00,,---,0.00,VWS V14.01,2013-04-22 20:45:00,
2013-04-22 15:50:00,77.9,44.0,29.89,ESE,113,3.0,5.0,30,0.00,,---,0.00,VWS V14.01,2013-04-22 20:50:00,
2013-04-22 15:55:00,77.7,43.8,29.89,South,175,2.0,5.0,30,0.00,,---,0.00,VWS V14.01,2013-04-22 20:55:00,
2013-04-22 16:00:00,78.3,42.5,29.89,SE,140,1.0,5.0,28,0.00,,---,0.00,VWS V14.01,2013-04-22 21:00:00,
2013-04-22 16:05:00,78.6,42.8,29.89,SSE,156,2.0,7.0,28,0.00,,---,0.00,VWS V14.01,2013-04-22 21:05:00,
2013-04-22 16:10:00,78.3,42.5,29.88,South,186,3.0,5.0,28,0.00,,---,0.00,VWS V14.01,2013-04-22 21:10:00,
2013-04-22 16:15:00,77.7,42.0,29.88,SSE,158,5.0,6.0,28,0.00,,---,0.00,VWS V14.01,2013-04-22 21:15:00,
2013-04-22 16:20:00,78.1,42.4,29.88,SSE,156,5.0,6.0,28,0.00,,---,0.00,VWS V14.01,2013-04-22 21:20:00,
2013-04-22 16:25:00,77.7,42.0,29.87,ESE,120,0.0,1.0,28,0.00,,---,0.00,VWS V14.01,2013-04-22 21:25:00,
2013-04-22 16:30:00,77.7,42.0,29.87,SSE,158,1.0,4.0,28,0.00,,---,0.00,VWS V14.01,2013-04-22 21:30:00,
2013-04-22 16:35:00,77.9,42.2,29.87,West,261,4.0,4.0,28,0.00,,---,0.00,VWS V14.01,2013-04-22 21:35:00,
2013-04-22 16:40:00,77.9,42.2,29.87,WSW,245,6.0,9.0,28,0.00,,---,0.00,VWS V14.01,2013-04-22 21:40:00,
2013-04-22 16:45:00,77.6,42.0,29.87,South,178,5.0,9.0,28,0.00,,---,0.00,VWS V14.01,2013-04-22 21:45:00,
2013-04-22 16:50:00,77.6,42.0,29.87,SSW,205,3.0,9.0,28,0.00,,---,0.00,VWS V14.01,2013-04-22 21:50:00,
2013-04-22 16:55:00,77.7,42.0,29.87,South,170,2.0,3.0,28,0.00,,---,0.00,VWS V14.01,2013-04-22 21:55:00,
2013-04-22 17:00:00,77.6,42.0,29.87,SSE,156,0.0,5.0,28,0.00,,---,0.00,VWS V14.01,2013-04-22 22:00:00,
2013-04-22 17:05:00,77.4,41.8,29.87,SW,225,0.0,5.0,28,0.00,,---,0.00,VWS V14.01,2013-04-22 22:05:00,
2013-04-22 17:10:00,77.4,41.8,29.86,SSW,200,4.0,4.0,28,0.00,,---,0.00,VWS V14.01,2013-04-22 22:10:00,
2013-04-22 17:15:00,77.4,41.8,29.86,WSW,245,6.0,6.0,28,0.00,,---,0.00,VWS V14.01,2013-04-22 22:15:00,
2013-04-22 17:20:00,77.2,41.6,29.86,SW,236,3.0,6.0,28,0.00,,---,0.00,VWS V14.01,2013-04-22 22:20:00,
2013-04-22 17:25:00,76.7,43.0,29.86,SSE,166,5.0,5.0,30,0.00,,---,0.00,VWS V14.01,2013-04-22 22:25:00,
2013-04-22 17:30:00,76.7,43.0,29.86,SSE,165,4.0,5.0,30,0.00,,---,0.00,VWS V14.01,2013-04-22 22:30:00,
2013-04-22 17:34:00,76.1,40.7,29.86,SSE,159,1.0,6.0,28,0.00,,---,0.00,VWS V14.01,2013-04-22 22:34:00,
2013-04-22 17:39:00,76.1,40.7,29.85,NNW,333,3.0,3.0,28,0.00,,---,0.00,VWS V14.01,2013-04-22 22:39:00,
2013-04-22 17:44:00,76.0,40.6,29.85,SSE,153,0.0,3.0,28,0.00,,---,0.00,VWS V14.01,2013-04-22 22:44:00,
2013-04-22 17:49:00,75.8,40.4,29.85,South,184,0.0,3.0,28,0.00,,---,0.00,VWS V14.01,2013-04-22 22:49:00,
2013-04-22 17:54:00,75.8,40.4,29.85,SSE,155,5.0,5.0,28,0.00,,---,0.00,VWS V14.01,2013-04-22 22:54:00,
2013-04-22 17:59:00,75.4,40.1,29.85,SSE,165,1.0,5.0,28,0.00,,---,0.00,VWS V14.01,2013-04-22 22:59:00,
2013-04-22 18:04:00,75.4,40.1,29.85,South,170,0.0,5.0,28,0.00,,---,0.00,VWS V14.01,2013-04-22 23:04:00,
2013-04-22 18:09:00,75.4,40.1,29.85,SE,126,5.0,5.0,28,0.00,,---,0.00,VWS V14.01,2013-04-22 23:09:00,
2013-04-22 18:14:00,75.4,40.1,29.85,SSE,165,6.0,6.0,28,0.00,,---,0.00,VWS V14.01,2013-04-22 23:14:00,
2013-04-22 18:19:00,75.4,40.1,29.85,SW,219,1.0,7.0,28,0.00,,---,0.00,VWS V14.01,2013-04-22 23:19:00,
2013-04-22 18:24:00,74.9,39.6,29.85,South,181,1.0,4.0,28,0.00,,---,0.00,VWS V14.01,2013-04-22 23:24:00,
2013-04-22 18:29:00,74.9,39.6,29.85,SE,139,2.0,4.0,28,0.00,,---,0.00,VWS V14.01,2013-04-22 23:29:00,
2013-04-22 18:34:00,74.7,42.9,29.85,SSW,194,2.0,5.0,32,0.00,,---,0.00,VWS V14.01,2013-04-22 23:34:00,
2013-04-22 18:39:00,74.4,41.8,29.85,WSW,242,0.0,5.0,31,0.00,,---,0.00,VWS V14.01,2013-04-22 23:39:00,
2013-04-22 18:44:00,74.2,41.7,29.85,SSE,161,0.0,5.0,31,0.00,,---,0.00,VWS V14.01,2013-04-22 23:44:00,
2013-04-22 18:49:00,74.4,41.8,29.85,SSE,168,3.0,5.0,31,0.00,,---,0.00,VWS V14.01,2013-04-22 23:49:00,
2013-04-22 18:54:00,74.0,41.5,29.85,SE,146,3.0,3.0,31,0.00,,---,0.00,VWS V14.01,2013-04-22 23:54:00,
2013-04-22 18:59:00,73.9,41.4,29.85,SSE,153,0.0,7.0,31,0.00,,---,0.00,VWS V14.01,2013-04-22 23:59:00,
2013-04-22 19:04:00,73.7,41.2,29.85,NNW,348,3.0,7.0,31,0.00,,---,0.00,VWS V14.01,2013-04-23 00:04:00,
2013-04-22 19:09:00,73.2,40.8,29.85,SSE,149,3.0,3.0,31,0.00,,---,0.00,VWS V14.01,2013-04-23 00:09:00,
2013-04-22 19:14:00,73.0,40.6,29.85,SSW,204,1.0,3.0,31,0.00,,---,0.00,VWS V14.01,2013-04-23 00:14:00,
2013-04-22 19:19:00,72.8,44.3,29.85,SSE,150,2.0,3.0,36,0.00,,---,0.00,VWS V14.01,2013-04-23 00:19:00,
2013-04-22 19:24:00,72.7,44.2,29.85,SSE,155,0.0,0.0,36,0.00,,---,0.00,VWS V14.01,2013-04-23 00:24:00,
2013-04-22 19:29:00,72.5,44.1,29.85,SSE,152,0.0,2.0,36,0.00,,---,0.00,VWS V14.01,2013-04-23 00:29:00,
2013-04-22 19:34:00,72.1,43.7,29.85,SE,146,0.0,3.0,36,0.00,,---,0.00,VWS V14.01,2013-04-23 00:34:00,
2013-04-22 19:39:00,71.8,43.4,29.85,SSE,155,0.0,0.0,36,0.00,,---,0.00,VWS V14.01,2013-04-23 00:39:00,
2013-04-22 19:44:00,71.6,43.3,29.85,SSE,155,0.0,0.0,36,0.00,,---,0.00,VWS V14.01,2013-04-23 00:44:00,
2013-04-22 19:49:00,70.9,42.6,29.85,SSE,155,0.0,1.0,36,0.00,,---,0.00,VWS V14.01,2013-04-23 00:49:00,
2013-04-22 19:54:00,70.4,42.2,29.85,SSE,155,0.0,0.0,36,0.00,,---,0.00,VWS V14.01,2013-04-23 00:54:00,
2013-04-22 19:59:00,70.4,42.2,29.85,SSE,154,0.0,0.0,36,0.00,,---,0.00,VWS V14.01,2013-04-23 00:59:00,
2013-04-22 20:04:00,70.4,42.2,29.85,SSE,154,0.0,0.0,36,0.00,,---,0.00,VWS V14.01,2013-04-23 01:04:00,
2013-04-22 20:09:00,69.8,41.7,29.85,East,101,0.0,2.0,36,0.00,,---,0.00,VWS V14.01,2013-04-23 01:09:00,
2013-04-22 20:14:00,69.6,41.5,29.85,East,101,0.0,2.0,36,0.00,,---,0.00,VWS V14.01,2013-04-23 01:14:00,
2013-04-22 20:19:00,69.1,41.0,29.85,East,101,0.0,2.0,36,0.00,,---,0.00,VWS V14.01,2013-04-23 01:19:00,
2013-04-22 20:24:00,69.1,41.0,29.86,East,101,0.0,0.0,36,0.00,,---,0.00,VWS V14.01,2013-04-23 01:24:00,
2013-04-22 20:29:00,68.6,40.6,29.86,East,101,0.0,0.0,36,0.00,,---,0.00,VWS V14.01,2013-04-23 01:29:00,
2013-04-22 20:34:00,68.3,40.3,29.86,East,101,0.0,0.0,36,0.00,,---,0.00,VWS V14.01,2013-04-23 01:34:00,
2013-04-22 20:39:00,68.4,46.2,29.86,ESE,113,0.0,2.0,45,0.00,,---,0.00,VWS V14.01,2013-04-23 01:39:00,
2013-04-22 20:44:00,68.4,46.2,29.86,ESE,113,0.0,2.0,45,0.00,,---,0.00,VWS V14.01,2013-04-23 01:44:00,
2013-04-22 20:49:00,67.9,47.0,29.86,ESE,104,0.0,5.0,47,0.00,,---,0.00,VWS V14.01,2013-04-23 01:49:00,
2013-04-22 20:54:00,67.9,47.0,29.86,SE,127,0.0,0.0,47,0.00,,---,0.00,VWS V14.01,2013-04-23 01:54:00,
2013-04-22 20:59:00,67.8,46.9,29.86,SE,127,0.0,0.0,47,0.00,,---,0.00,VWS V14.01,2013-04-23 01:59:00,
2013-04-22 21:04:00,67.6,46.7,29.86,SE,127,0.0,0.0,47,0.00,,---,0.00,VWS V14.01,2013-04-23 02:04:00,
2013-04-22 21:09:00,67.4,46.5,29.85,SE,127,0.0,2.0,47,0.00,,---,0.00,VWS V14.01,2013-04-23 02:09:00,
2013-04-22 21:14:00,67.4,46.5,29.85,SE,128,0.0,2.0,47,0.00,,---,0.00,VWS V14.01,2013-04-23 02:14:00,
2013-04-22 21:19:00,67.1,46.2,29.85,SE,128,0.0,2.0,47,0.00,,---,0.00,VWS V14.01,2013-04-23 02:19:00,
2013-04-22 21:24:00,66.9,47.1,29.86,SE,128,0.0,0.0,49,0.00,,---,0.00,VWS V14.01,2013-04-23 02:24:00,
2013-04-22 21:29:00,67.3,47.5,29.86,SE,128,0.0,0.0,49,0.00,,---,0.00,VWS V14.01,2013-04-23 02:29:00,
2013-04-22 21:34:00,67.3,47.5,29.86,ESE,115,3.0,3.0,49,0.00,,---,0.00,VWS V14.01,2013-04-23 02:34:00,
2013-04-22 21:39:00,67.3,47.5,29.86,SE,144,0.0,3.0,49,0.00,,---,0.00,VWS V14.01,2013-04-23 02:39:00,
2013-04-22 21:44:00,66.9,47.1,29.86,SE,144,1.0,3.0,49,0.00,,---,0.00,VWS V14.01,2013-04-23 02:44:00,
2013-04-22 21:49:00,66.9,47.1,29.86,SE,142,0.0,4.0,49,0.00,,---,0.00,VWS V14.01,2013-04-23 02:49:00,
2013-04-22 21:54:00,67.3,47.5,29.85,South,173,0.0,2.0,49,0.00,,---,0.00,VWS V14.01,2013-04-23 02:54:00,
2013-04-22 21:59:00,67.3,47.5,29.85,SE,144,0.0,3.0,49,0.00,,---,0.00,VWS V14.01,2013-04-23 02:59:00,
2013-04-22 22:04:00,67.6,47.8,29.85,SSE,148,0.0,4.0,49,0.00,,---,0.00,VWS V14.01,2013-04-23 03:04:00,
2013-04-22 22:09:00,67.6,47.8,29.86,SSE,148,1.0,1.0,49,0.00,,---,0.00,VWS V14.01,2013-04-23 03:09:00,
2013-04-22 22:14:00,67.4,47.6,29.86,SSE,161,3.0,4.0,49,0.00,,---,0.00,VWS V14.01,2013-04-23 03:14:00,
2013-04-22 22:19:00,67.6,47.8,29.86,SE,132,1.0,6.0,49,0.00,,---,0.00,VWS V14.01,2013-04-23 03:19:00,
2013-04-22 22:24:00,67.6,47.8,29.86,SSE,148,0.0,3.0,49,0.00,,---,0.00,VWS V14.01,2013-04-23 03:24:00,
2013-04-22 22:29:00,67.4,47.6,29.86,SSE,148,0.0,3.0,49,0.00,,---,0.00,VWS V14.01,2013-04-23 03:29:00,
2013-04-22 22:34:00,67.3,46.4,29.86,SSE,152,5.0,5.0,47,0.00,,---,0.00,VWS V14.01,2013-04-23 03:34:00,
2013-04-22 22:39:00,66.9,47.1,29.86,SSE,153,0.0,4.0,49,0.00,,---,0.00,VWS V14.01,2013-04-23 03:39:00,
2013-04-22 22:44:00,66.9,47.1,29.86,SSE,153,2.0,4.0,49,0.00,,---,0.00,VWS V14.01,2013-04-23 03:44:00,
2013-04-22 22:49:00,66.9,47.1,29.86,SSE,153,0.0,4.0,49,0.00,,---,0.00,VWS V14.01,2013-04-23 03:49:00,
2013-04-22 22:54:00,66.9,46.6,29.86,SSE,153,0.0,0.0,48,0.00,,---,0.00,VWS V14.01,2013-04-23 03:54:00,
2013-04-22 22:59:00,66.8,46.5,29.86,SSE,153,1.0,1.0,48,0.00,,---,0.00,VWS V14.01,2013-04-23 03:59:00,
2013-04-22 23:01:00,66.8,46.5,29.86,SSE,153,5.0,5.0,48,0.00,,---,0.00,VWS V14.01,2013-04-23 04:01:00,
2013-04-22 23:06:00,66.4,46.1,29.86,SSE,148,0.0,5.0,48,0.00,,---,0.00,VWS V14.01,2013-04-23 04:06:00,
2013-04-22 23:11:00,66.3,46.0,29.86,SSE,148,0.0,0.0,48,0.00,,---,0.00,VWS V14.01,2013-04-23 04:11:00,
2013-04-22 23:16:00,66.0,45.8,29.86,SE,146,1.0,1.0,48,0.00,,---,0.00,VWS V14.01,2013-04-23 04:16:00,
2013-04-22 23:21:00,65.5,46.9,29.86,SE,146,0.0,1.0,51,0.00,,---,0.00,VWS V14.01,2013-04-23 04:21:00,
2013-04-22 23:26:00,65.5,46.9,29.86,SE,146,0.0,0.0,51,0.00,,---,0.00,VWS V14.01,2013-04-23 04:26:00,
2013-04-22 23:31:00,65.0,46.5,29.86,South,190,0.0,0.0,51,0.00,,---,0.00,VWS V14.01,2013-04-23 04:31:00,
2013-04-22 23:36:00,64.8,47.3,29.86,SSE,159,0.0,2.0,53,0.00,,---,0.00,VWS V14.01,2013-04-23 04:36:00,
2013-04-22 23:41:00,64.7,47.2,29.86,SSE,159,0.0,0.0,53,0.00,,---,0.00,VWS V14.01,2013-04-23 04:41:00,
2013-04-22 23:46:00,64.7,47.2,29.86,SSE,159,0.0,0.0,53,0.00,,---,0.00,VWS V14.01,2013-04-23 04:46:00,
2013-04-22 23:51:00,64.7,47.2,29.86,SE,131,0.0,1.0,53,0.00,,---,0.00,VWS V14.01,2013-04-23 04:51:00,
2013-04-22 23:56:00,64.2,46.7,29.86,SE,131,0.0,0.0,53,0.00,,---,0.00,VWS V14.01,2013-04-23 04:56:00,